• In Portugal
  • List of Countries
  • For 7 days
  • Water Temperature
  • Satellite Maps
  • Weather Map
  • Weather Widgets
  • user-avatar
    Login

    Hourly Weather Omaruru

    Today, 16 December, Saturday

    Time Temperature Precipitation Wind Pressure Humidity
    00:00 +25°C° 0 mm 1 mps 660 mmHg 25%
    01:00 +22°C° 0 mm 0 mps 660 mmHg 26%
    02:00 +23°C° 0 mm 1 mps 659 mmHg 26%
    03:00 +23°C° 0 mm 1 mps 659 mmHg 25%
    04:00 +23°C° 0 mm 1 mps 659 mmHg 25%
    05:00 +24°C° 0 mm 1 mps 659 mmHg 22%
    06:00 +26°C° 0 mm 2 mps 660 mmHg 19%
    07:00 +28°C° 0 mm 2 mps 661 mmHg 16%
    08:00 +30°C° 0 mm 2 mps 661 mmHg 15%
    09:00 +32°C° 0 mm 2 mps 661 mmHg 15%
    10:00 +35°C° 0 mm 2 mps 662 mmHg 14%
    11:00 +35°C° 0 mm 3 mps 661 mmHg 16%
    12:00 +35°C° 0 mm 4 mps 661 mmHg 17%
    13:00 +35°C° 0 mm 5 mps 661 mmHg 19%
    14:00 +35°C° 0 mm 4 mps 660 mmHg 21%
    15:00 +35°C° 0 mm 3 mps 660 mmHg 23%
    16:00 +34°C° 0 mm 3 mps 659 mmHg 24%
    17:00 +33°C° 0.1 mm 3 mps 660 mmHg 25%
    18:00 +31°C° 0.1 mm 3 mps 660 mmHg 25%
    19:00 +30°C° 0.1 mm 3 mps 660 mmHg 26%
    20:00 +29°C° 0.1 mm 3 mps 660 mmHg 26%
    21:00 +29°C° 0.1 mm 2 mps 660 mmHg 27%
    22:00 +28°C° 0.1 mm 2 mps 661 mmHg 27%
    23:00 +27°C° 0.3 mm 2 mps 660 mmHg 29%

    Tomorrow, 17 December, Sunday

    Time Temperature Precipitation Wind Pressure Humidity
    00:00 +27°C° 0.3 mm 2 mps 660 mmHg 30%
    01:00 +26°C° 0.3 mm 1 mps 660 mmHg 32%
    02:00 +26°C° 0.1 mm 1 mps 660 mmHg 32%
    03:00 +26°C° 0.1 mm 1 mps 659 mmHg 33%
    04:00 +25°C° 0.1 mm 1 mps 659 mmHg 34%
    05:00 +26°C° 0.5 mm 1 mps 659 mmHg 33%
    06:00 +27°C° 0.5 mm 1 mps 660 mmHg 33%
    07:00 +27°C° 0.5 mm 1 mps 660 mmHg 33%
    08:00 +29°C° 0.3 mm 2 mps 660 mmHg 33%
    09:00 +30°C° 0.3 mm 3 mps 661 mmHg 33%
    10:00 +31°C° 0.3 mm 3 mps 661 mmHg 33%
    11:00 +33°C° 0.1 mm 3 mps 661 mmHg 32%
    12:00 +34°C° 0.1 mm 3 mps 661 mmHg 31%
    13:00 +35°C° 0.1 mm 3 mps 660 mmHg 29%
    14:00 +34°C° 0.6 mm 4 mps 660 mmHg 31%
    15:00 +33°C° 0.6 mm 4 mps 659 mmHg 32%
    16:00 +33°C° 0.6 mm 4 mps 659 mmHg 34%
    17:00 +30°C° 1.2 mm 4 mps 659 mmHg 37%
    18:00 +29°C° 1.2 mm 4 mps 659 mmHg 40%
    19:00 +27°C° 1.2 mm 3 mps 659 mmHg 43%
    20:00 +27°C° 0.3 mm 3 mps 660 mmHg 43%
    21:00 +27°C° 0.3 mm 2 mps 660 mmHg 42%
    22:00 +26°C° 0.3 mm 2 mps 660 mmHg 42%
    23:00 +26°C° 0 mm 2 mps 660 mmHg 42%

    Day after tomorrow, 18 December, Monday

    Time Temperature Precipitation Wind Pressure Humidity
    00:00 +25°C° 0 mm 2 mps 659 mmHg 42%
    01:00 +25°C° 0 mm 2 mps 659 mmHg 43%
    02:00 +24°C° 0 mm 1 mps 659 mmHg 44%
    03:00 +24°C° 0 mm 1 mps 659 mmHg 45%
    04:00 +23°C° 0 mm 1 mps 658 mmHg 46%
    05:00 +24°C° 0 mm 1 mps 659 mmHg 43%
    06:00 +24°C° 0 mm 1 mps 659 mmHg 40%
    07:00 +25°C° 0 mm 1 mps 660 mmHg 37%
    08:00 +27°C° 0 mm 1 mps 660 mmHg 32%
    09:00 +29°C° 0 mm 1 mps 660 mmHg 27%
    10:00 +31°C° 0 mm 1 mps 661 mmHg 23%
    11:00 +32°C° 0 mm 2 mps 660 mmHg 21%
    12:00 +34°C° 0 mm 2 mps 660 mmHg 19%
    13:00 +35°C° 0 mm 3 mps 660 mmHg 17%
    14:00 +35°C° 0 mm 4 mps 659 mmHg 17%
    15:00 +35°C° 0 mm 5 mps 659 mmHg 17%
    16:00 +35°C° 0 mm 6 mps 658 mmHg 17%
    17:00 +33°C° 0 mm 6 mps 658 mmHg 20%
    18:00 +30°C° 0 mm 5 mps 658 mmHg 23%
    19:00 +28°C° 0 mm 5 mps 658 mmHg 26%
    20:00 +27°C° 0 mm 4 mps 659 mmHg 28%
    21:00 +26°C° 0 mm 3 mps 659 mmHg 30%
    22:00 +25°C° 0 mm 2 mps 659 mmHg 32%
    23:00 +25°C° 0 mm 2 mps 659 mmHg 34%

    19 December, Tuesday

    Time Temperature Precipitation Wind Pressure Humidity
    00:00 +24°C° 0 mm 2 mps 658 mmHg 35%
    01:00 +24°C° 0 mm 1 mps 658 mmHg 36%
    02:00 +23°C° 0 mm 1 mps 658 mmHg 38%
    03:00 +23°C° 0 mm 1 mps 658 mmHg 39%
    04:00 +22°C° 0 mm 1 mps 657 mmHg 41%
    05:00 +23°C° 0 mm 1 mps 658 mmHg 39%
    06:00 +24°C° 0 mm 1 mps 658 mmHg 37%
    07:00 +24°C° 0 mm 1 mps 658 mmHg 35%
    08:00 +26°C° 0 mm 1 mps 659 mmHg 30%
    09:00 +26°C° 0 mm 0 mps 659 mmHg 25%
    10:00 +29°C° 0 mm 0 mps 659 mmHg 20%
    11:00 +32°C° 0 mm 1 mps 659 mmHg 19%
    12:00 +34°C° 0 mm 2 mps 659 mmHg 18%
    13:00 +35°C° 0 mm 3 mps 658 mmHg 16%
    14:00 +35°C° 0 mm 4 mps 658 mmHg 16%
    15:00 +35°C° 0 mm 5 mps 658 mmHg 17%
    16:00 +35°C° 0 mm 6 mps 657 mmHg 17%
    17:00 +33°C° 0 mm 6 mps 657 mmHg 20%
    18:00 +30°C° 0 mm 5 mps 657 mmHg 23%
    19:00 +28°C° 0 mm 5 mps 658 mmHg 27%
    20:00 +27°C° 0 mm 5 mps 658 mmHg 27%
    21:00 +27°C° 0 mm 4 mps 658 mmHg 27%
    22:00 +26°C° 0 mm 3 mps 659 mmHg 27%
    23:00 +25°C° 0 mm 3 mps 658 mmHg 26%

    20 December, Wednesday

    Time Temperature Precipitation Wind Pressure Humidity
    00:00 +25°C° 0 mm 2 mps 658 mmHg 25%
    01:00 +25°C° 0 mm 2 mps 658 mmHg 24%
    02:00 +24°C° 0 mm 2 mps 657 mmHg 24%
    03:00 +24°C° 0 mm 1 mps 657 mmHg 25%
    04:00 +23°C° 0 mm 1 mps 657 mmHg 26%
    05:00 +24°C° 0 mm 1 mps 657 mmHg 24%
    06:00 +24°C° 0 mm 1 mps 658 mmHg 22%
    07:00 +24°C° 0 mm 1 mps 658 mmHg 21%
    08:00 +26°C° 0 mm 1 mps 659 mmHg 19%
    09:00 +28°C° 0 mm 1 mps 659 mmHg 16%
    10:00 +30°C° 0 mm 1 mps 659 mmHg 14%
    11:00 +31°C° 0 mm 1 mps 659 mmHg 15%
    12:00 +32°C° 0 mm 1 mps 659 mmHg 16%
    13:00 +34°C° 0 mm 2 mps 659 mmHg 16%
    14:00 +34°C° 0 mm 2 mps 659 mmHg 17%
    15:00 +34°C° 0 mm 3 mps 659 mmHg 18%
    16:00 +34°C° 0 mm 3 mps 658 mmHg 18%
    17:00 +32°C° 0.1 mm 4 mps 659 mmHg 24%
    18:00 +29°C° 0.1 mm 4 mps 659 mmHg 29%
    19:00 +27°C° 0.1 mm 5 mps 659 mmHg 34%
    20:00 +27°C° 0.1 mm 4 mps 659 mmHg 34%
    21:00 +26°C° 0.1 mm 4 mps 660 mmHg 33%
    22:00 +25°C° 0.1 mm 3 mps 660 mmHg 32%
    23:00 +25°C° 0 mm 3 mps 660 mmHg 30%

    21 December, Thursday

    Time Temperature Precipitation Wind Pressure Humidity
    00:00 +25°C° 0 mm 3 mps 659 mmHg 28%
    01:00 +24°C° 0 mm 3 mps 659 mmHg 26%
    02:00 +24°C° 0 mm 2 mps 659 mmHg 25%
    03:00 +23°C° 0 mm 2 mps 659 mmHg 24%
    04:00 +23°C° 0 mm 2 mps 658 mmHg 24%
    05:00 +23°C° 0 mm 1 mps 659 mmHg 22%
    06:00 +24°C° 0 mm 1 mps 659 mmHg 20%
    07:00 +24°C° 0 mm 1 mps 659 mmHg 18%
    08:00 +26°C° 0 mm 1 mps 660 mmHg 16%
    09:00 +28°C° 0 mm 2 mps 660 mmHg 15%
    10:00 +30°C° 0 mm 2 mps 660 mmHg 13%
    11:00 +31°C° 0 mm 2 mps 660 mmHg 13%
    12:00 +33°C° 0 mm 3 mps 660 mmHg 13%
    13:00 +34°C° 0 mm 3 mps 660 mmHg 14%
    14:00 +34°C° 0 mm 4 mps 660 mmHg 14%
    15:00 +34°C° 0 mm 5 mps 660 mmHg 14%
    16:00 +35°C° 0 mm 6 mps 659 mmHg 15%
    17:00 +32°C° 0 mm 6 mps 659 mmHg 19%
    18:00 +29°C° 0 mm 6 mps 659 mmHg 24%
    19:00 +27°C° 0 mm 6 mps 659 mmHg 28%
    20:00 +26°C° 0 mm 6 mps 659 mmHg 30%
    21:00 +25°C° 0 mm 5 mps 660 mmHg 31%
    22:00 +23°C° 0 mm 4 mps 660 mmHg 33%
    23:00 +24°C° 0 mm 3 mps 660 mmHg 32%
    Show more

    XHprof extension not loaded